• en France
  • Liste des pays
  • À 7 jours
  • Température de l'eau
  • Carte satellitaire
  • Carte météo
  • Widgets météo
  • user-avatar
    Se connecter

    Météo par heure à Saitkulovo

    Ce jour, 17 Juillet, Mardi

    Heure Température Précipitation Vent Pression Humidité
    00:00 +16°C° 0 mm 2 m/s 713 mmHg 93%
    01:00 +15°C° 0 mm 2 m/s 713 mmHg 94%
    02:00 +15°C° 0 mm 2 m/s 713 mmHg 94%
    03:00 +14°C° 0 mm 2 m/s 712 mmHg 94%
    04:00 +14°C° 0 mm 2 m/s 712 mmHg 94%
    05:00 +15°C° 0 mm 2 m/s 712 mmHg 91%
    06:00 +16°C° 0 mm 2 m/s 713 mmHg 87%
    07:00 +17°C° 0 mm 2 m/s 713 mmHg 83%
    08:00 +19°C° 0 mm 3 m/s 713 mmHg 77%
    09:00 +20°C° 0 mm 3 m/s 713 mmHg 71%
    10:00 +22°C° 0 mm 4 m/s 713 mmHg 65%
    11:00 +22°C° 0 mm 4 m/s 713 mmHg 64%
    12:00 +23°C° 0 mm 4 m/s 713 mmHg 62%
    13:00 +23°C° 0 mm 4 m/s 713 mmHg 60%
    14:00 +25°C° 0 mm 4 m/s 713 mmHg 60%
    15:00 +25°C° 0 mm 4 m/s 713 mmHg 59%
    16:00 +26°C° 0 mm 4 m/s 712 mmHg 58%
    17:00 +25°C° 0 mm 4 m/s 712 mmHg 63%
    18:00 +24°C° 0 mm 3 m/s 712 mmHg 68%
    19:00 +22°C° 0 mm 3 m/s 712 mmHg 73%
    20:00 +21°C° 0 mm 3 m/s 711 mmHg 75%
    21:00 +20°C° 0 mm 3 m/s 711 mmHg 77%
    22:00 +19°C° 0 mm 3 m/s 711 mmHg 80%
    23:00 +18°C° 0,1 mm 2 m/s 711 mmHg 81%

    Demain, 18 Juillet, Mercredi

    Heure Température Précipitation Vent Pression Humidité
    00:00 +18°C° 0,1 mm 2 m/s 711 mmHg 82%
    01:00 +17°C° 0,1 mm 2 m/s 711 mmHg 83%
    02:00 +17°C° 0,2 mm 2 m/s 711 mmHg 83%
    03:00 +17°C° 0,2 mm 2 m/s 711 mmHg 84%
    04:00 +17°C° 0,2 mm 2 m/s 711 mmHg 84%
    05:00 +17°C° 0,2 mm 2 m/s 711 mmHg 84%
    06:00 +17°C° 0,2 mm 2 m/s 711 mmHg 84%
    07:00 +18°C° 0,2 mm 2 m/s 711 mmHg 83%
    08:00 +18°C° 0,5 mm 2 m/s 711 mmHg 82%
    09:00 +18°C° 0,5 mm 2 m/s 711 mmHg 81%
    10:00 +19°C° 0,5 mm 2 m/s 711 mmHg 79%
    11:00 +19°C° 0,3 mm 2 m/s 712 mmHg 79%
    12:00 +19°C° 0,3 mm 2 m/s 712 mmHg 79%
    13:00 +20°C° 0,3 mm 3 m/s 712 mmHg 78%
    14:00 +21°C° 0 mm 3 m/s 712 mmHg 75%
    15:00 +21°C° 0 mm 3 m/s 712 mmHg 72%
    16:00 +22°C° 0 mm 3 m/s 712 mmHg 68%
    17:00 +23°C° 0 mm 2 m/s 711 mmHg 71%
    18:00 +21°C° 0 mm 2 m/s 711 mmHg 73%
    19:00 +21°C° 0 mm 2 m/s 711 mmHg 76%
    20:00 +20°C° 0,4 mm 2 m/s 711 mmHg 80%
    21:00 +19°C° 0,4 mm 2 m/s 711 mmHg 85%
    22:00 +18°C° 0,4 mm 2 m/s 711 mmHg 89%
    23:00 +18°C° 0,5 mm 2 m/s 711 mmHg 90%

    Après-demain, 19 Juillet, Jeudi

    Heure Température Précipitation Vent Pression Humidité
    00:00 +17°C° 0,5 mm 2 m/s 711 mmHg 91%
    01:00 +17°C° 0,5 mm 2 m/s 711 mmHg 93%
    02:00 +17°C° 0,1 mm 2 m/s 712 mmHg 93%
    03:00 +17°C° 0,1 mm 2 m/s 712 mmHg 93%
    04:00 +16°C° 0,1 mm 2 m/s 712 mmHg 93%
    05:00 +17°C° 0 mm 2 m/s 712 mmHg 91%
    06:00 +18°C° 0 mm 2 m/s 712 mmHg 89%
    07:00 +18°C° 0 mm 2 m/s 712 mmHg 87%
    08:00 +19°C° 0 mm 2 m/s 712 mmHg 82%
    09:00 +21°C° 0 mm 2 m/s 713 mmHg 77%
    10:00 +22°C° 0 mm 3 m/s 713 mmHg 72%
    11:00 +22°C° 0,1 mm 3 m/s 713 mmHg 71%
    12:00 +24°C° 0,1 mm 3 m/s 713 mmHg 71%
    13:00 +23°C° 0,1 mm 4 m/s 713 mmHg 70%
    14:00 +24°C° 0,3 mm 3 m/s 713 mmHg 71%
    15:00 +24°C° 0,3 mm 3 m/s 713 mmHg 73%
    16:00 +24°C° 0,3 mm 3 m/s 713 mmHg 74%
    17:00 +23°C° 0,1 mm 2 m/s 713 mmHg 77%
    18:00 +23°C° 0,1 mm 2 m/s 713 mmHg 80%
    19:00 +21°C° 0,1 mm 2 m/s 713 mmHg 83%
    20:00 +20°C° 0,3 mm 2 m/s 713 mmHg 87%
    21:00 +18°C° 0,3 mm 2 m/s 713 mmHg 91%
    22:00 +17°C° 0,3 mm 2 m/s 713 mmHg 95%
    23:00 +16°C° 0 mm 2 m/s 712 mmHg 95%

    20 Juillet, Vendredi

    Heure Température Précipitation Vent Pression Humidité
    00:00 +16°C° 0 mm 2 m/s 712 mmHg 95%
    01:00 +15°C° 0 mm 2 m/s 712 mmHg 95%
    02:00 +15°C° 0 mm 2 m/s 712 mmHg 95%
    03:00 +15°C° 0 mm 2 m/s 712 mmHg 95%
    04:00 +14°C° 0 mm 2 m/s 712 mmHg 95%
    05:00 +14°C° 0 mm 3 m/s 712 mmHg 92%
    06:00 +17°C° 0 mm 3 m/s 712 mmHg 90%
    07:00 +18°C° 0 mm 3 m/s 713 mmHg 87%
    08:00 +19°C° 0 mm 4 m/s 713 mmHg 81%
    09:00 +21°C° 0 mm 5 m/s 713 mmHg 75%
    10:00 +22°C° 0 mm 5 m/s 713 mmHg 69%
    11:00 +23°C° 0 mm 5 m/s 713 mmHg 68%
    12:00 +23°C° 0 mm 5 m/s 713 mmHg 68%
    13:00 +25°C° 0 mm 5 m/s 713 mmHg 67%
    14:00 +25°C° 0,1 mm 5 m/s 712 mmHg 67%
    15:00 +25°C° 0,1 mm 5 m/s 712 mmHg 67%
    16:00 +25°C° 0,1 mm 5 m/s 712 mmHg 66%
    17:00 +23°C° 0 mm 5 m/s 712 mmHg 70%
    18:00 +22°C° 0 mm 5 m/s 712 mmHg 73%
    19:00 +21°C° 0 mm 4 m/s 712 mmHg 77%
    20:00 +20°C° 0,2 mm 4 m/s 712 mmHg 82%
    21:00 +19°C° 0,2 mm 4 m/s 712 mmHg 87%
    22:00 +17°C° 0,2 mm 4 m/s 712 mmHg 93%
    23:00 +17°C° 0 mm 4 m/s 712 mmHg 93%

    21 Juillet, Samedi

    Heure Température Précipitation Vent Pression Humidité
    00:00 +17°C° 0 mm 4 m/s 712 mmHg 94%
    01:00 +15°C° 0 mm 4 m/s 712 mmHg 95%
    02:00 +15°C° 0 mm 4 m/s 712 mmHg 95%
    03:00 +15°C° 0 mm 5 m/s 712 mmHg 95%
    04:00 +15°C° 0 mm 5 m/s 712 mmHg 95%
    05:00 +15°C° 0 mm 5 m/s 712 mmHg 92%
    06:00 +16°C° 0 mm 6 m/s 712 mmHg 90%
    07:00 +17°C° 0 mm 6 m/s 712 mmHg 87%
    08:00 +19°C° 0 mm 6 m/s 712 mmHg 82%
    09:00 +20°C° 0 mm 7 m/s 713 mmHg 76%
    10:00 +21°C° 0 mm 7 m/s 713 mmHg 71%
    11:00 +22°C° 0 mm 7 m/s 713 mmHg 69%
    12:00 +22°C° 0 mm 7 m/s 713 mmHg 67%
    13:00 +23°C° 0 mm 7 m/s 713 mmHg 66%
    14:00 +23°C° 0 mm 7 m/s 713 mmHg 66%
    15:00 +23°C° 0 mm 7 m/s 713 mmHg 66%
    16:00 +23°C° 0 mm 7 m/s 713 mmHg 66%
    17:00 +22°C° 0 mm 6 m/s 713 mmHg 67%
    18:00 +21°C° 0 mm 6 m/s 713 mmHg 69%
    19:00 +20°C° 0 mm 6 m/s 714 mmHg 70%
    20:00 +19°C° 0 mm 6 m/s 714 mmHg 70%
    21:00 +17°C° 0 mm 6 m/s 714 mmHg 70%
    22:00 +15°C° 0 mm 6 m/s 714 mmHg 70%
    23:00 +15°C° 0 mm 6 m/s 714 mmHg 72%

    22 Juillet, Dimanche

    Heure Température Précipitation Vent Pression Humidité
    00:00 +14°C° 0 mm 5 m/s 714 mmHg 73%
    01:00 +13°C° 0 mm 5 m/s 714 mmHg 75%
    02:00 +13°C° 0 mm 5 m/s 714 mmHg 78%
    03:00 +12°C° 0 mm 5 m/s 714 mmHg 80%
    04:00 +10°C° 0 mm 5 m/s 714 mmHg 83%
    05:00 +12°C° 0 mm 5 m/s 714 mmHg 79%
    06:00 +13°C° 0 mm 6 m/s 714 mmHg 75%
    07:00 +13°C° 0 mm 6 m/s 715 mmHg 71%
    08:00 +15°C° 0 mm 6 m/s 715 mmHg 67%
    09:00 +16°C° 0 mm 7 m/s 715 mmHg 62%
    10:00 +17°C° 0 mm 7 m/s 715 mmHg 57%
    11:00 +18°C° 0 mm 7 m/s 715 mmHg 55%
    12:00 +20°C° 0 mm 7 m/s 715 mmHg 53%
    13:00 +21°C° 0 mm 7 m/s 715 mmHg 51%
    14:00 +20°C° 0 mm 7 m/s 715 mmHg 51%
    15:00 +20°C° 0 mm 7 m/s 715 mmHg 51%
    16:00 +20°C° 0 mm 6 m/s 715 mmHg 52%
    17:00 +19°C° 0 mm 6 m/s 715 mmHg 56%
    18:00 +17°C° 0 mm 5 m/s 715 mmHg 60%
    19:00 +16°C° 0 mm 5 m/s 715 mmHg 64%
    20:00 +15°C° 0 mm 5 m/s 715 mmHg 67%
    21:00 +14°C° 0 mm 5 m/s 715 mmHg 69%
    22:00 +13°C° 0 mm 4 m/s 715 mmHg 72%
    23:00 +13°C° 0 mm 4 m/s 715 mmHg 73%
    Voir plus